Home > Weather > Saskatoon > Past weeks

Flag for Canada Weather for the Past 2 Weeks in Saskatoon, Saskatchewan, Canada

Now
54 °F

Passing clouds.


Feels Like: 51 °F
Forecast: 56 / 88 °F
Wind: 9 mph from Southwest

Location: Saskatoon Weather Station

Current Time: May 4, 2016 at 4:35:44 AM

Latest Report: May 4, 2016 at 4:00 AM


Visibility: 15 mi

Pressure: 29.92 "Hg

Humidity: 63%

Dew Point: 41 °F

Location of SaskatoonLocation

Historic Weather in Saskatoon — Graph

°F

Saskatoon Temperature Yesterday

Maximum temperature yesterday: 84 °F (at 3:00 PM)
Minimum temperature yesterday: 43 °F (at 6:00 AM)
Average temperature yesterday: 66 °F

High & Low Weather Summary for the Past Weeks

 TemperatureHumidityPressure
High84 °F (May 3, 3:00 PM)100% (Apr 23, 10:00 PM)30.38 "Hg (Apr 23, 10:00 PM)
Low23 °F (Apr 21, 5:00 AM)11% (Apr 19, 4:00 PM)29.88 "Hg (Apr 20, 2:00 AM)
Average50 °F44%30.15 "Hg
* Reported Apr 19 3:00 AM — May 4 3:00 AM, Saskatoon, Weather by CustomWeather, © 2016

Note: Actual official high and low records may vary slightly from our data, if they occured in-between our weather recording intervals... More about our weather records

Advertising

Saskatoon Weather History for the Previous 24 Hours

Scroll right to see more
 ConditionsComfort  
Time TempWeatherWind HumidityBarometerVisibility
3:00 AM
Wed, May 4
55 °FClear.8 mph59%29.93 "Hg15 mi
2:00 AM57 °FClear.8 mph51%29.93 "Hg15 mi
1:00 AM57 °FClear.9 mph55%29.94 "Hg15 mi
12:00 AM55 °FClear.10 mph63%29.94 "Hg15 mi
11:00 PM
Tue, May 3
59 °FPassing clouds.8 mph55%29.94 "Hg15 mi
10:00 PM66 °FPassing clouds.9 mph40%29.95 "Hg15 mi
9:00 PM68 °FPassing clouds.8 mph33%29.95 "Hg15 mi
8:00 PM73 °FScattered clouds.9 mph29%29.95 "Hg15 mi
7:00 PM81 °FHigh level clouds.8 mph21%29.96 "Hg15 mi
6:00 PM84 °FPartly sunny.8 mph18%29.98 "Hg15 mi
5:00 PM84 °FPartly sunny.6 mph18%29.99 "Hg15 mi
4:00 PM84 °FPartly sunny.9 mph19%30.00 "Hg15 mi
3:00 PM84 °FScattered clouds.7 mph20%30.02 "Hg15 mi
2:00 PM82 °FPartly sunny.5 mph20%30.03 "Hg15 mi
1:00 PM82 °FScattered clouds.9 mph21%30.04 "Hg15 mi
12:00 PM79 °FPartly sunny.7 mph24%30.06 "Hg15 mi
11:00 AM75 °FScattered clouds.6 mph25%30.07 "Hg15 mi
10:00 AM72 °FScattered clouds.6 mph36%30.07 "Hg15 mi
9:00 AM66 °FScattered clouds.9 mph40%30.07 "Hg15 mi
8:00 AM63 °FScattered clouds.10 mph42%30.06 "Hg15 mi
7:00 AM54 °FPassing clouds.6 mph72%30.08 "Hg15 mi
6:00 AM43 °FPartly sunny.7 mph87%30.07 "Hg15 mi
5:00 AM45 °FPassing clouds.5 mph81%30.06 "Hg15 mi
4:00 AM46 °FClear.3 mph82%30.05 "Hg15 mi
Weather by CustomWeather, © 2016

See weather overviewHow to use our weather pages